Liberia, Costa Rica

5:06 AM CST on December 06, 2016 (GMT -0600)
Daniel Oduber Quiros International

Weather History for MRLB - December, 2012

Change the Weather History Date:

Friday, December 28, 2012

  Actual Average Record
Temperature  
Mean Temperature 84 °F -  
Max Temperature 94 °F 88 °F 95 °F (2000)
Min Temperature 75 °F 72 °F 64 °F (2006)
Cooling Degree Days 20    
Growing Degree Days 34 (Base 50)    
Moisture  
Dew Point 68 °F    
Average Humidity 57    
Maximum Humidity 78    
Minimum Humidity 34    
Precipitation  
Precipitation 0.00 in - - ()
Sea Level Pressure  
Sea Level Pressure 29.77 in    
Wind  
Wind Speed 8 mph ()    
Max Wind Speed 18 mph    
Max Gust Speed -    
Visibility 7.7 miles    
Events      
Averages and records for this station are not official NWS values.
T = Trace of Precipitation, MM = Missing Value Source: Averaged Metar Reports

Daily Weather History Graph

Daily Weather History Graph

Search for Another Location

Airport or City:

Trip Planner

Search our weather history database for the weather conditions in past years. The results will help you decide how hot, cold, wet, or windy it might be!

Date:

Astronomy

Dec. 28, 2012 Rise Set
Actual Time 5:58 AM CST 5:29 PM CST
Civil Twilight 5:35 AM CST 5:52 PM CST
Nautical Twilight 5:09 AM CST 6:18 PM CST
Astronomical Twilight 4:43 AM CST 6:44 PM CST
Moon 5:54 PM CST (12/28) 6:01 AM CST (12/28)
Length of Visible Light 12h 16m
Length of Day
11h 30m
Full, 100% of the Moon is Illuminated
Dec 28
Full
Jan 4
Last Quarter
Jan 11
New
Jan 18
First Quarter
Jan 26
Full

Hourly Weather History & Observations

Time (CST) Temp. Heat Index Dew Point Humidity Pressure Visibility Wind Dir Wind Speed Gust Speed Precip Events Conditions
6:00 AM 76 °F - 69 °F 74% 29.80 in 12 mi Calm Calm - -   Partly Cloudy
6:00 AM 77.0 °F - 69.8 °F 78% 29.78 in 6.2 mi Calm Calm - N/A   Scattered Clouds
7:00 AM 78.8 °F - 69.8 °F 74% 29.79 in 6.2 mi ESE 5.8 mph - N/A   Mostly Cloudy
8:00 AM 80.6 °F 83.9 °F 69.8 °F 70% 29.82 in 6.2 mi East 3.5 mph - N/A   Mostly Cloudy
9:00 AM 82 °F - 71 °F 61% 29.83 in 12 mi SW 4.6 mph - -   Mostly Cloudy
9:00 AM 82.4 °F 87.2 °F 71.6 °F 70% 29.82 in 6.2 mi SW 4.6 mph - N/A   Mostly Cloudy
10:00 AM 87.8 °F 92.6 °F 69.8 °F 55% 29.81 in 6.2 mi ENE 16.1 mph - N/A   Scattered Clouds
11:00 AM 89.6 °F 93.4 °F 68.0 °F 49% 29.80 in 6.2 mi ENE 17.3 mph - N/A   Scattered Clouds
12:00 PM 89 °F - 68 °F 40% 29.78 in 12 mi ENE 15.0 mph - -   Scattered Clouds
12:00 PM 89.6 °F 93.4 °F 68.0 °F 49% 29.77 in 6.2 mi ENE 15.0 mph - N/A   Scattered Clouds
1:00 PM 93.2 °F 96.2 °F 66.2 °F 41% 29.75 in 6.2 mi NE 16.1 mph - N/A   Mostly Cloudy
2:00 PM 91.4 °F 95.4 °F 68.0 °F 46% 29.72 in 6.2 mi NE 16.1 mph - N/A   Mostly Cloudy
3:00 PM 90 °F - 65 °F 34% 29.73 in 12 mi ENE 15.0 mph - -   Overcast
3:00 PM 91.4 °F 93.2 °F 64.4 °F 41% 29.72 in 6.2 mi ENE 15.0 mph - N/A   Mostly Cloudy
4:00 PM 87.8 °F 91.4 °F 68.0 °F 52% 29.71 in 6.2 mi ENE 17.3 mph - N/A   Overcast
5:00 PM 84.2 °F 87.3 °F 68.0 °F 58% 29.72 in 6.2 mi ENE 15.0 mph - N/A   Mostly Cloudy
6:00 PM 83 °F - 68 °F 53% 29.76 in 12 mi ENE 11.5 mph - -   Overcast
6:00 PM 82.4 °F 85.4 °F 68.0 °F 62% 29.74 in 6.2 mi ENE 11.5 mph - N/A   Mostly Cloudy
7:00 PM 82.4 °F 85.4 °F 68.0 °F 62% 29.76 in 6.2 mi ENE 12.7 mph - N/A   Mostly Cloudy
8:00 PM 82.4 °F 85.4 °F 68.0 °F 62% 29.77 in 6.2 mi ENE 18.4 mph - N/A   Mostly Cloudy